Location: Treviso
(45.6669°N, 12.2430°E)
Time: 18:31:39
(UTC+02:00)

CUBESAT XI-V - Pass Details

Date: 02 May 2019
Orbit: 668 x 694 km, 98.0° (Epoch: 19 May)

Event Time Altitude Azimuth Distance (km) Brightness Sun altitude
Exits shadow 05:21:30 - 247° (WSW) 2,310 ? -6.5°
Reaches altitude 10° 05:23:10 10° 266° (W) 2,130 ? -6.3°
Maximum altitude 05:23:43 10° 273° (W) 2,118 ? -6.2°
Drops below altitude 10° 05:24:16 10° 280° (W) 2,130 ? -6.1°
Sets 05:29:00 0° 324° (NW) 3,046 ? -5.4°
